Location: Peebles
(55.6412°N, 3.1714°W)
Time: 23:33:00
(UTC+01:00)

CENTAUR R/B - Pass Details

Date: 26 January 2022
Orbit: 716 x 1471 km, 63.4° (Epoch: 08 May)

Event Time Altitude Azimuth Distance (km) Brightness Sun altitude
Rises 17:01:40 0° 236° (SW) 3,493 8.1 -4.1°
Reaches altitude 10° 17:03:58 10° 238° (WSW) 2,646 6.7 -4.4°
Maximum altitude 17:10:14 79° 325° (NW) 1,097 2.9 -5.2°
Drops below altitude 10° 17:17:55 10° 53° (NE) 3,212 4.6 -6.2°
Enters shadow 17:18:56 - 54° (NE) 3,571 4.8 -6.3°
